Time,TemperatureF,DewpointF,PressureIn,WindDirection,WindDirectionDegrees,WindSpeedMPH,WindSpeedGustMPH,Humidity,HourlyPrecipIn,Conditions,Clouds,dailyrainin,SoftwareType,DateUTC
2013-04-10 00:00:00,52.0,42.5,30.19,SSW,207,0.0,2.0,70,0.00,,,0.00,WUHU216DAVISVP2,2013-04-10 07:00:00,
2013-04-10 00:05:00,52.0,42.5,30.18,ESE,105,0.0,2.0,70,0.00,,,0.00,WUHU216DAVISVP2,2013-04-10 07:05:00,
2013-04-10 00:10:00,52.1,42.2,30.18,ENE,66,0.0,2.0,69,0.00,,,0.00,WUHU216DAVISVP2,2013-04-10 07:10:00,
2013-04-10 00:15:00,52.2,42.3,30.18,NNE,33,1.0,2.0,69,0.00,,,0.00,WUHU216DAVISVP2,2013-04-10 07:15:00,
2013-04-10 00:20:00,52.3,42.0,30.17,ENE,65,2.0,2.0,68,0.00,,,0.00,WUHU216DAVISVP2,2013-04-10 07:20:00,
2013-04-10 00:25:00,52.6,42.3,30.17,SE,128,3.0,6.0,68,0.00,,,0.00,WUHU216DAVISVP2,2013-04-10 07:25:00,
2013-04-10 00:30:00,52.6,42.7,30.17,ENE,57,1.0,6.0,69,0.00,,,0.00,WUHU216DAVISVP2,2013-04-10 07:30:00,
2013-04-10 00:35:00,52.4,43.0,30.17,SE,144,0.0,2.0,70,0.00,,,0.00,WUHU216DAVISVP2,2013-04-10 07:35:00,
2013-04-10 00:40:00,52.3,42.9,30.17,SE,144,0.0,2.0,70,0.00,,,0.00,WUHU216DAVISVP2,2013-04-10 07:40:00,
2013-04-10 00:45:00,52.2,42.8,30.17,South,186,2.0,5.0,70,0.00,,,0.00,WUHU216DAVISVP2,2013-04-10 07:45:00,
2013-04-10 00:50:00,52.2,43.2,30.17,SW,217,3.0,5.0,71,0.00,,,0.00,WUHU216DAVISVP2,2013-04-10 07:50:00,
2013-04-10 00:55:00,52.2,42.8,30.17,SW,229,0.0,3.0,70,0.00,,,0.00,WUHU216DAVISVP2,2013-04-10 07:55:00,
2013-04-10 01:00:00,52.2,43.2,30.17,SSW,207,3.0,3.0,71,0.00,,,0.00,WUHU216DAVISVP2,2013-04-10 08:00:00,
2013-04-10 01:05:00,52.3,43.6,30.17,West,267,0.0,3.0,72,0.00,,,0.00,WUHU216DAVISVP2,2013-04-10 08:05:00,
2013-04-10 01:10:00,52.3,44.0,30.17,WSW,240,1.0,3.0,73,0.00,,,0.00,WUHU216DAVISVP2,2013-04-10 08:10:00,
2013-04-10 01:15:00,52.3,43.6,30.17,SW,231,0.0,3.0,72,0.00,,,0.00,WUHU216DAVISVP2,2013-04-10 08:15:00,
2013-04-10 01:20:00,52.3,43.3,30.15,NNW,343,1.0,2.0,71,0.00,,,0.00,WUHU216DAVISVP2,2013-04-10 08:20:00,
2013-04-10 01:25:00,52.4,43.4,30.15,North,350,1.0,3.0,71,0.00,,,0.00,WUHU216DAVISVP2,2013-04-10 08:25:00,
2013-04-10 01:30:00,52.6,43.6,30.16,North,360,2.0,3.0,71,0.00,,,0.00,WUHU216DAVISVP2,2013-04-10 08:30:00,
2013-04-10 01:35:00,52.6,43.9,30.15,NNW,343,5.0,5.0,72,0.00,,,0.00,WUHU216DAVISVP2,2013-04-10 08:35:00,
2013-04-10 01:40:00,52.8,43.4,30.15,NW,307,0.0,5.0,70,0.00,,,0.00,WUHU216DAVISVP2,2013-04-10 08:40:00,
2013-04-10 01:45:00,52.9,43.5,30.15,NNW,340,0.0,4.0,70,0.00,,,0.00,WUHU216DAVISVP2,2013-04-10 08:45:00,
2013-04-10 01:50:00,52.9,43.9,30.15,NNW,340,0.0,4.0,71,0.00,,,0.00,WUHU216DAVISVP2,2013-04-10 08:50:00,
2013-04-10 01:55:00,53.0,43.6,30.15,SE,138,0.0,8.0,70,0.00,,,0.00,WUHU216DAVISVP2,2013-04-10 08:55:00,
2013-04-10 02:00:00,53.1,43.7,30.14,NNW,334,1.0,8.0,70,0.00,,,0.00,WUHU216DAVISVP2,2013-04-10 09:00:00,
2013-04-10 02:05:00,53.1,44.1,30.14,West,261,0.0,4.0,71,0.00,,,0.00,WUHU216DAVISVP2,2013-04-10 09:05:00,
2013-04-10 02:10:00,53.1,44.4,30.14,SSE,149,0.0,5.0,72,0.00,,,0.00,WUHU216DAVISVP2,2013-04-10 09:10:00,
2013-04-10 02:15:00,53.1,44.4,30.14,WNW,297,1.0,5.0,72,0.00,,,0.00,WUHU216DAVISVP2,2013-04-10 09:15:00,
2013-04-10 02:20:00,53.1,44.4,30.13,NNW,335,2.0,4.0,72,0.00,,,0.00,WUHU216DAVISVP2,2013-04-10 09:20:00,
2013-04-10 02:25:00,53.2,44.5,30.13,NE,49,0.0,6.0,72,0.00,,,0.00,WUHU216DAVISVP2,2013-04-10 09:25:00,
2013-04-10 02:30:00,53.2,44.9,30.13,North,350,3.0,6.0,73,0.00,,,0.00,WUHU216DAVISVP2,2013-04-10 09:30:00,
2013-04-10 02:35:00,53.2,44.9,30.13,NNW,348,2.0,6.0,73,0.00,,,0.00,WUHU216DAVISVP2,2013-04-10 09:35:00,
2013-04-10 02:40:00,53.2,44.9,30.13,NE,44,1.0,6.0,73,0.00,,,0.00,WUHU216DAVISVP2,2013-04-10 09:40:00,
2013-04-10 02:45:00,53.2,45.2,30.13,NNE,23,2.0,3.0,74,0.00,,,0.00,WUHU216DAVISVP2,2013-04-10 09:45:00,
2013-04-10 02:50:00,53.0,45.0,30.13,NNW,346,2.0,4.0,74,0.00,,,0.00,WUHU216DAVISVP2,2013-04-10 09:50:00,
2013-04-10 02:55:00,52.9,44.9,30.13,East,85,2.0,5.0,74,0.00,,,0.00,WUHU216DAVISVP2,2013-04-10 09:55:00,
2013-04-10 03:00:00,52.9,45.3,30.13,NE,52,0.0,5.0,75,0.00,,,0.00,WUHU216DAVISVP2,2013-04-10 10:00:00,
2013-04-10 03:05:00,52.8,45.2,30.13,North,5,0.0,1.0,75,0.00,,,0.00,WUHU216DAVISVP2,2013-04-10 10:05:00,
2013-04-10 03:10:00,52.7,45.4,30.12,WNW,293,2.0,3.0,76,0.00,,,0.00,WUHU216DAVISVP2,2013-04-10 10:10:00,
2013-04-10 03:15:00,52.6,45.3,30.12,NE,53,0.0,3.0,76,0.00,,,0.00,WUHU216DAVISVP2,2013-04-10 10:15:00,
2013-04-10 03:20:00,52.5,45.2,30.12,North,10,0.0,3.0,76,0.00,,,0.00,WUHU216DAVISVP2,2013-04-10 10:20:00,
2013-04-10 03:25:00,52.4,45.5,30.12,ENE,74,1.0,3.0,77,0.00,,,0.00,WUHU216DAVISVP2,2013-04-10 10:25:00,
2013-04-10 03:30:00,52.3,45.0,30.11,WNW,301,5.0,5.0,76,0.00,,,0.00,WUHU216DAVISVP2,2013-04-10 10:30:00,
2013-04-10 03:35:00,52.3,45.4,30.11,NE,34,4.0,5.0,77,0.00,,,0.00,WUHU216DAVISVP2,2013-04-10 10:35:00,
2013-04-10 03:40:00,52.2,45.3,30.12,ENE,70,2.0,5.0,77,0.00,,,0.00,WUHU216DAVISVP2,2013-04-10 10:40:00,
2013-04-10 03:45:00,52.2,45.3,30.12,NW,318,7.0,7.0,77,0.00,,,0.00,WUHU216DAVISVP2,2013-04-10 10:45:00,
2013-04-10 03:50:00,52.1,45.5,30.12,South,187,0.0,9.0,78,0.00,,,0.00,WUHU216DAVISVP2,2013-04-10 10:50:00,
2013-04-10 03:55:00,51.9,45.3,30.12,NE,56,2.0,9.0,78,0.00,,,0.00,WUHU216DAVISVP2,2013-04-10 10:55:00,
2013-04-10 04:00:00,51.8,45.2,30.12,NNW,343,5.0,5.0,78,0.00,,,0.00,WUHU216DAVISVP2,2013-04-10 11:00:00,
2013-04-10 04:05:00,51.7,45.1,30.12,NNW,339,0.0,5.0,78,0.00,,,0.00,WUHU216DAVISVP2,2013-04-10 11:05:00,
2013-04-10 04:10:00,51.5,45.2,30.12,NNE,30,1.0,5.0,79,0.00,,,0.00,WUHU216DAVISVP2,2013-04-10 11:10:00,
2013-04-10 04:15:00,51.4,45.2,30.12,WSW,246,3.0,5.0,79,0.00,,,0.00,WUHU216DAVISVP2,2013-04-10 11:15:00,
2013-04-10 04:20:00,51.4,45.5,30.11,NNE,19,0.0,5.0,80,0.00,,,0.00,WUHU216DAVISVP2,2013-04-10 11:20:00,
2013-04-10 04:25:00,51.3,45.4,30.10,NW,308,0.0,5.0,80,0.00,,,0.00,WUHU216DAVISVP2,2013-04-10 11:25:00,
2013-04-10 04:30:00,51.3,45.4,30.11,NW,322,1.0,5.0,80,0.00,,,0.00,WUHU216DAVISVP2,2013-04-10 11:30:00,
2013-04-10 04:35:00,51.3,45.4,30.10,NNW,343,0.0,5.0,80,0.00,,,0.00,WUHU216DAVISVP2,2013-04-10 11:35:00,
2013-04-10 04:40:00,51.3,45.7,30.10,NNE,21,0.0,3.0,81,0.00,,,0.00,WUHU216DAVISVP2,2013-04-10 11:40:00,
2013-04-10 04:45:00,51.4,45.5,30.10,SSE,161,3.0,5.0,80,0.00,,,0.00,WUHU216DAVISVP2,2013-04-10 11:45:00,
2013-04-10 04:50:00,51.5,45.6,30.09,NNW,331,1.0,5.0,80,0.00,,,0.00,WUHU216DAVISVP2,2013-04-10 11:50:00,
2013-04-10 04:55:00,51.6,45.7,30.09,West,260,0.0,7.0,80,0.00,,,0.00,WUHU216DAVISVP2,2013-04-10 11:55:00,
2013-04-10 05:00:00,51.6,45.7,30.09,SSW,205,2.0,7.0,80,0.00,,,0.00,WUHU216DAVISVP2,2013-04-10 12:00:00,
2013-04-10 05:05:00,51.7,45.8,30.08,NNE,17,2.0,5.0,80,0.00,,,0.00,WUHU216DAVISVP2,2013-04-10 12:05:00,
2013-04-10 05:10:00,51.7,45.8,30.08,South,171,0.0,5.0,80,0.00,,,0.00,WUHU216DAVISVP2,2013-04-10 12:10:00,
2013-04-10 05:15:00,51.7,45.8,30.08,NNW,345,0.0,5.0,80,0.00,,,0.00,WUHU216DAVISVP2,2013-04-10 12:15:00,
2013-04-10 05:20:00,51.8,45.9,30.07,NNW,346,1.0,3.0,80,0.00,,,0.00,WUHU216DAVISVP2,2013-04-10 12:20:00,
2013-04-10 05:25:00,51.8,46.2,30.06,NNE,24,3.0,4.0,81,0.00,,,0.00,WUHU216DAVISVP2,2013-04-10 12:25:00,
2013-04-10 05:30:00,51.9,46.3,30.06,NE,40,0.0,4.0,81,0.00,,,0.00,WUHU216DAVISVP2,2013-04-10 12:30:00,
2013-04-10 05:35:00,52.0,46.4,30.05,WSW,237,2.0,5.0,81,0.00,,,0.00,WUHU216DAVISVP2,2013-04-10 12:35:00,
2013-04-10 05:40:00,51.9,46.3,30.05,WNW,298,0.0,5.0,81,0.00,,,0.00,WUHU216DAVISVP2,2013-04-10 12:40:00,
2013-04-10 05:45:00,52.0,46.4,30.05,West,277,1.0,3.0,81,0.00,,,0.00,WUHU216DAVISVP2,2013-04-10 12:45:00,
2013-04-10 05:50:00,52.1,46.5,30.05,NNW,347,5.0,5.0,81,0.00,,,0.00,WUHU216DAVISVP2,2013-04-10 12:50:00,
2013-04-10 05:55:00,52.1,46.5,30.05,NW,325,0.0,6.0,81,0.00,,,0.00,WUHU216DAVISVP2,2013-04-10 12:55:00,
2013-04-10 06:00:00,52.2,46.6,30.05,NNW,346,4.0,6.0,81,0.00,,,0.00,WUHU216DAVISVP2,2013-04-10 13:00:00,
2013-04-10 06:05:00,52.2,46.6,30.05,East,89,0.0,6.0,81,0.00,,,0.00,WUHU216DAVISVP2,2013-04-10 13:05:00,
2013-04-10 06:10:00,52.2,46.6,30.04,North,350,1.0,7.0,81,0.00,,,0.00,WUHU216DAVISVP2,2013-04-10 13:10:00,
2013-04-10 06:15:00,52.1,46.5,30.03,North,355,1.0,7.0,81,0.00,,,0.00,WUHU216DAVISVP2,2013-04-10 13:15:00,
2013-04-10 06:20:00,52.1,46.5,30.02,NNW,338,4.0,7.0,81,0.00,,,0.00,WUHU216DAVISVP2,2013-04-10 13:20:00,
2013-04-10 06:25:00,52.1,46.5,30.02,NNE,28,3.0,4.0,81,0.00,,,0.00,WUHU216DAVISVP2,2013-04-10 13:25:00,
2013-04-10 06:30:00,52.0,46.4,30.02,NNW,346,0.0,5.0,81,0.00,,,0.00,WUHU216DAVISVP2,2013-04-10 13:30:00,
2013-04-10 06:35:00,52.1,46.5,30.02,NNW,328,2.0,11.0,81,0.00,,,0.00,WUHU216DAVISVP2,2013-04-10 13:35:00,
2013-04-10 06:40:00,52.1,46.5,30.02,SW,231,0.0,11.0,81,0.00,,,0.00,WUHU216DAVISVP2,2013-04-10 13:40:00,
2013-04-10 06:45:00,52.2,46.3,30.02,NNW,335,2.0,5.0,80,0.00,,,0.00,WUHU216DAVISVP2,2013-04-10 13:45:00,
2013-04-10 06:50:00,52.2,46.6,30.02,ESE,110,2.0,5.0,81,0.00,,,0.00,WUHU216DAVISVP2,2013-04-10 13:50:00,
2013-04-10 06:55:00,52.2,46.6,30.02,North,360,0.0,5.0,81,0.00,,,0.00,WUHU216DAVISVP2,2013-04-10 13:55:00,
2013-04-10 07:00:00,52.1,46.5,30.02,NE,36,5.0,5.0,81,0.00,,,0.00,WUHU216DAVISVP2,2013-04-10 14:00:00,
2013-04-10 07:05:00,52.0,46.7,30.02,ENE,60,2.0,5.0,82,0.00,,,0.00,WUHU216DAVISVP2,2013-04-10 14:05:00,
2013-04-10 07:10:00,52.0,46.7,30.02,NNE,30,4.0,6.0,82,0.00,,,0.00,WUHU216DAVISVP2,2013-04-10 14:10:00,
2013-04-10 07:15:00,51.9,46.9,30.02,East,88,2.0,6.0,83,0.00,,,0.00,WUHU216DAVISVP2,2013-04-10 14:15:00,
2013-04-10 07:20:00,51.9,46.9,30.01,NW,324,5.0,5.0,83,0.00,,,0.00,WUHU216DAVISVP2,2013-04-10 14:20:00,
2013-04-10 07:25:00,51.9,46.9,30.02,North,350,2.0,5.0,83,0.00,,,0.00,WUHU216DAVISVP2,2013-04-10 14:25:00,
2013-04-10 07:30:00,52.0,46.7,30.01,NW,309,3.0,7.0,82,0.00,,,0.00,WUHU216DAVISVP2,2013-04-10 14:30:00,
2013-04-10 07:35:00,52.2,46.9,30.01,North,5,1.0,7.0,82,0.00,,,0.00,WUHU216DAVISVP2,2013-04-10 14:35:00,
2013-04-10 07:40:00,52.3,47.0,30.00,NW,323,1.0,7.0,82,0.00,,,0.00,WUHU216DAVISVP2,2013-04-10 14:40:00,
2013-04-10 07:45:00,52.5,47.2,30.00,North,5,6.0,7.0,82,0.00,,,0.00,WUHU216DAVISVP2,2013-04-10 14:45:00,
2013-04-10 07:50:00,52.5,47.2,29.99,North,351,1.0,6.0,82,0.00,,,0.00,WUHU216DAVISVP2,2013-04-10 14:50:00,
2013-04-10 07:55:00,52.4,47.4,29.97,East,82,1.0,11.0,83,0.00,,,0.00,WUHU216DAVISVP2,2013-04-10 14:55:00,
2013-04-10 08:00:00,52.5,47.2,29.93,ENE,61,1.0,12.0,82,0.00,,,0.00,WUHU216DAVISVP2,2013-04-10 15:00:00,
2013-04-10 08:05:00,52.5,47.2,29.95,North,355,3.0,12.0,82,0.00,,,0.00,WUHU216DAVISVP2,2013-04-10 15:05:00,
2013-04-10 08:10:00,52.6,47.3,29.95,NE,56,3.0,8.0,82,0.00,,,0.00,WUHU216DAVISVP2,2013-04-10 15:10:00,
2013-04-10 08:15:00,52.8,47.2,29.94,North,5,2.0,7.0,81,0.00,,,0.00,WUHU216DAVISVP2,2013-04-10 15:15:00,
2013-04-10 08:20:00,52.9,47.3,29.95,West,277,0.0,7.0,81,0.00,,,0.00,WUHU216DAVISVP2,2013-04-10 15:20:00,
2013-04-10 08:25:00,53.0,47.4,29.94,North,5,1.0,7.0,81,0.00,,,0.00,WUHU216DAVISVP2,2013-04-10 15:25:00,
2013-04-10 08:30:00,53.1,47.5,29.94,NW,323,4.0,6.0,81,0.00,,,0.00,WUHU216DAVISVP2,2013-04-10 15:30:00,
2013-04-10 08:35:00,53.2,47.6,29.94,NNE,25,2.0,5.0,81,0.00,,,0.00,WUHU216DAVISVP2,2013-04-10 15:35:00,
2013-04-10 08:40:00,53.3,47.6,29.96,SSW,209,2.0,9.0,81,0.00,,,0.00,WUHU216DAVISVP2,2013-04-10 15:40:00,
2013-04-10 08:45:00,53.3,48.0,29.96,WSW,244,0.0,9.0,82,0.00,,,0.00,WUHU216DAVISVP2,2013-04-10 15:45:00,
2013-04-10 08:50:00,53.2,47.9,29.96,NW,307,1.0,4.0,82,0.00,,,0.00,WUHU216DAVISVP2,2013-04-10 15:50:00,
2013-04-10 08:55:00,53.1,48.1,29.96,NNW,335,2.0,4.0,83,0.00,,,0.00,WUHU216DAVISVP2,2013-04-10 15:55:00,
2013-04-10 09:00:00,52.8,48.1,29.96,NNE,15,1.0,4.0,84,0.00,,,0.00,WUHU216DAVISVP2,2013-04-10 16:00:00,
2013-04-10 09:05:00,52.5,48.7,29.97,West,269,2.0,5.0,87,0.01,,,0.01,WUHU216DAVISVP2,2013-04-10 16:05:00,
2013-04-10 09:10:00,52.1,48.6,29.98,SW,224,1.0,5.0,88,0.01,,,0.01,WUHU216DAVISVP2,2013-04-10 16:10:00,
2013-04-10 09:15:00,51.8,48.6,29.98,WSW,255,1.0,3.0,89,0.02,,,0.02,WUHU216DAVISVP2,2013-04-10 16:15:00,
2013-04-10 09:20:00,51.5,48.6,29.98,WNW,288,1.0,3.0,90,0.02,,,0.02,WUHU216DAVISVP2,2013-04-10 16:20:00,
2013-04-10 09:25:00,51.4,48.8,29.98,NE,47,0.0,3.0,91,0.02,,,0.02,WUHU216DAVISVP2,2013-04-10 16:25:00,
2013-04-10 09:30:00,51.3,48.7,29.99,WNW,300,0.0,1.0,91,0.02,,,0.02,WUHU216DAVISVP2,2013-04-10 16:30:00,
2013-04-10 09:35:00,51.2,48.6,29.99,SW,225,3.0,5.0,91,0.03,,,0.03,WUHU216DAVISVP2,2013-04-10 16:35:00,
2013-04-10 09:40:00,51.2,48.6,29.99,SW,222,1.0,7.0,91,0.04,,,0.04,WUHU216DAVISVP2,2013-04-10 16:40:00,
2013-04-10 09:45:00,51.3,48.7,29.99,SSW,213,1.0,10.0,91,0.04,,,0.04,WUHU216DAVISVP2,2013-04-10 16:45:00,
2013-04-10 09:50:00,51.3,48.7,30.00,WSW,244,2.0,10.0,91,0.05,,,0.05,WUHU216DAVISVP2,2013-04-10 16:50:00,
2013-04-10 09:55:00,51.3,48.7,30.00,SSW,207,4.0,9.0,91,0.06,,,0.06,WUHU216DAVISVP2,2013-04-10 16:55:00,
2013-04-10 10:00:00,51.4,48.8,30.00,SW,221,4.0,9.0,91,0.06,,,0.06,WUHU216DAVISVP2,2013-04-10 17:00:00,
2013-04-10 10:05:00,51.4,48.8,30.01,SW,228,2.0,7.0,91,0.06,,,0.07,WUHU216DAVISVP2,2013-04-10 17:05:00,
2013-04-10 10:10:00,51.4,48.5,30.02,SSW,205,10.0,10.0,90,0.07,,,0.08,WUHU216DAVISVP2,2013-04-10 17:10:00,
2013-04-10 10:15:00,51.5,48.6,30.01,WSW,245,4.0,10.0,90,0.06,,,0.08,WUHU216DAVISVP2,2013-04-10 17:15:00,
2013-04-10 10:20:00,51.4,48.5,30.02,SSW,207,7.0,9.0,90,0.07,,,0.09,WUHU216DAVISVP2,2013-04-10 17:20:00,
2013-04-10 10:28:00,51.9,46.6,30.02,SSW,195,4.0,9.0,82,0.07,,,0.10,WUHU216DAVISVP2,2013-04-10 17:28:00,
2013-04-10 10:33:00,51.9,46.6,30.02,SW,220,4.0,12.0,82,0.07,,,0.10,WUHU216DAVISVP2,2013-04-10 17:33:00,
2013-04-10 10:38:00,51.7,46.4,30.02,WSW,239,4.0,12.0,82,0.07,,,0.11,WUHU216DAVISVP2,2013-04-10 17:38:00,
2013-04-10 10:43:00,51.7,46.1,30.02,WNW,285,6.0,11.0,81,0.07,,,0.11,WUHU216DAVISVP2,2013-04-10 17:43:00,
2013-04-10 10:48:00,51.6,46.0,30.02,WSW,248,7.0,16.0,81,0.07,,,0.12,WUHU216DAVISVP2,2013-04-10 17:48:00,
2013-04-10 10:53:00,51.6,46.0,30.02,SW,224,5.0,16.0,81,0.06,,,0.12,WUHU216DAVISVP2,2013-04-10 17:53:00,
2013-04-10 10:58:00,51.4,46.1,30.02,SW,227,3.0,10.0,82,0.07,,,0.13,WUHU216DAVISVP2,2013-04-10 17:58:00,
2013-04-10 11:04:00,51.4,46.4,30.03,WSW,258,3.0,9.0,83,0.06,,,0.13,WUHU216DAVISVP2,2013-04-10 18:04:00,
2013-04-10 11:09:00,51.4,46.4,30.03,West,266,5.0,6.0,83,0.06,,,0.13,WUHU216DAVISVP2,2013-04-10 18:09:00,
2013-04-10 11:14:00,51.4,46.7,30.03,West,262,5.0,6.0,84,0.05,,,0.13,WUHU216DAVISVP2,2013-04-10 18:14:00,
2013-04-10 11:19:00,51.4,46.4,30.04,WSW,240,11.0,11.0,83,0.04,,,0.13,WUHU216DAVISVP2,2013-04-10 18:19:00,
2013-04-10 11:24:00,51.3,46.3,30.04,WSW,244,6.0,11.0,83,0.05,,,0.14,WUHU216DAVISVP2,2013-04-10 18:24:00,
2013-04-10 11:29:00,51.1,46.1,30.04,WSW,246,2.0,11.0,83,0.04,,,0.15,WUHU216DAVISVP2,2013-04-10 18:29:00,
2013-04-10 11:34:00,51.1,46.4,30.05,WSW,250,4.0,13.0,84,0.05,,,0.15,WUHU216DAVISVP2,2013-04-10 18:34:00,
2013-04-10 11:38:00,51.1,46.1,30.05,West,265,6.0,13.0,83,0.04,,,0.15,WUHU216DAVISVP2,2013-04-10 18:38:00,
2013-04-10 11:43:00,51.3,46.3,30.05,WSW,248,15.0,15.0,83,0.04,,,0.15,WUHU216DAVISVP2,2013-04-10 18:43:00,
2013-04-10 11:48:00,51.0,46.3,30.06,WNW,283,3.0,15.0,84,0.03,,,0.15,WUHU216DAVISVP2,2013-04-10 18:48:00,
2013-04-10 11:53:00,50.8,46.4,30.06,West,271,13.0,15.0,85,0.03,,,0.15,WUHU216DAVISVP2,2013-04-10 18:53:00,
2013-04-10 11:58:00,50.5,46.2,30.07,West,275,9.0,14.0,85,0.02,,,0.15,WUHU216DAVISVP2,2013-04-10 18:58:00,
2013-04-10 12:03:00,50.4,45.7,30.07,WSW,247,12.0,14.0,84,0.02,,,0.15,WUHU216DAVISVP2,2013-04-10 19:03:00,
2013-04-10 12:09:00,50.5,45.2,30.08,SW,236,10.0,15.0,82,0.02,,,0.15,WUHU216DAVISVP2,2013-04-10 19:09:00,
2013-04-10 12:13:00,50.5,45.2,30.08,West,266,8.0,20.0,82,0.02,,,0.15,WUHU216DAVISVP2,2013-04-10 19:13:00,
2013-04-10 12:19:00,50.5,45.2,30.09,West,278,1.0,20.0,82,0.02,,,0.15,WUHU216DAVISVP2,2013-04-10 19:19:00,
2013-04-10 12:24:00,50.7,45.4,30.09,SW,232,10.0,17.0,82,0.01,,,0.15,WUHU216DAVISVP2,2013-04-10 19:24:00,
2013-04-10 12:28:00,51.1,46.1,30.09,SW,223,7.0,17.0,83,0.00,,,0.15,WUHU216DAVISVP2,2013-04-10 19:28:00,
2013-04-10 12:33:00,50.8,45.5,30.09,WSW,241,5.0,18.0,82,0.00,,,0.15,WUHU216DAVISVP2,2013-04-10 19:33:00,
2013-04-10 12:39:00,50.8,45.2,30.10,SW,225,3.0,18.0,81,0.00,,,0.15,WUHU216DAVISVP2,2013-04-10 19:39:00,
2013-04-10 12:43:00,51.3,46.0,30.10,WSW,250,13.0,13.0,82,0.00,,,0.15,WUHU216DAVISVP2,2013-04-10 19:43:00,
2013-04-10 12:48:00,51.3,46.0,30.10,West,259,7.0,13.0,82,0.00,,,0.15,WUHU216DAVISVP2,2013-04-10 19:48:00,
2013-04-10 12:53:00,51.3,46.0,30.10,WSW,258,3.0,11.0,82,0.00,,,0.15,WUHU216DAVISVP2,2013-04-10 19:53:00,
2013-04-10 12:58:00,51.4,46.1,30.11,SW,214,6.0,13.0,82,0.00,,,0.15,WUHU216DAVISVP2,2013-04-10 19:58:00,
2013-04-10 13:03:00,51.9,43.3,30.11,South,185,12.0,14.0,72,0.00,,,0.15,WUHU216DAVISVP2,2013-04-10 20:03:00,
2013-04-10 13:08:00,51.7,42.7,30.11,WNW,286,11.0,16.0,71,0.00,,,0.15,WUHU216DAVISVP2,2013-04-10 20:08:00,
2013-04-10 13:13:00,51.6,42.9,30.11,West,273,5.0,16.0,72,0.00,,,0.15,WUHU216DAVISVP2,2013-04-10 20:13:00,
2013-04-10 13:18:00,51.6,42.5,30.11,WSW,247,10.0,19.0,71,0.00,,,0.15,WUHU216DAVISVP2,2013-04-10 20:18:00,
2013-04-10 13:24:00,51.4,42.3,30.12,SW,221,7.0,19.0,71,0.00,,,0.15,WUHU216DAVISVP2,2013-04-10 20:24:00,
2013-04-10 13:29:00,51.3,42.2,30.12,SW,235,6.0,14.0,71,0.00,,,0.15,WUHU216DAVISVP2,2013-04-10 20:29:00,
2013-04-10 13:34:00,51.4,42.7,30.13,SW,220,10.0,15.0,72,0.00,,,0.15,WUHU216DAVISVP2,2013-04-10 20:34:00,
2013-04-10 13:39:00,51.4,42.8,30.13,SSW,206,15.0,16.0,72,0.00,,,0.15,WUHU216DAVISVP2,2013-04-10 20:39:00,
2013-04-10 13:44:00,51.3,42.0,30.14,SW,224,3.0,16.0,70,0.00,,,0.15,WUHU216DAVISVP2,2013-04-10 20:44:00,
2013-04-10 13:49:00,51.4,41.7,30.13,SW,230,9.0,14.0,69,0.00,,,0.15,WUHU216DAVISVP2,2013-04-10 20:49:00,
2013-04-10 13:54:00,50.8,44.6,30.14,SW,226,11.0,14.0,79,0.00,,,0.15,WUHU216DAVISVP2,2013-04-10 20:54:00,
2013-04-10 13:59:00,50.9,45.3,30.14,WNW,282,6.0,14.0,81,0.00,,,0.15,WUHU216DAVISVP2,2013-04-10 20:59:00,
2013-04-10 14:04:00,51.3,45.1,30.14,SW,218,12.0,13.0,79,0.00,,,0.15,WUHU216DAVISVP2,2013-04-10 21:04:00,
2013-04-10 14:09:00,51.2,45.3,30.15,WSW,254,4.0,17.0,80,0.00,,,0.15,WUHU216DAVISVP2,2013-04-10 21:09:00,
2013-04-10 14:14:00,51.2,45.6,30.15,SW,217,10.0,17.0,81,0.00,,,0.15,WUHU216DAVISVP2,2013-04-10 21:14:00,
2013-04-10 14:19:00,51.0,44.4,30.15,SW,234,13.0,17.0,78,0.00,,,0.15,WUHU216DAVISVP2,2013-04-10 21:19:00,
2013-04-10 14:24:00,51.1,44.9,30.15,SW,220,16.0,18.0,79,0.00,,,0.15,WUHU216DAVISVP2,2013-04-10 21:24:00,
2013-04-10 14:29:00,51.4,44.5,30.15,WNW,282,10.0,18.0,77,0.00,,,0.15,WUHU216DAVISVP2,2013-04-10 21:29:00,
2013-04-10 14:34:00,52.0,45.1,30.16,WSW,254,6.0,17.0,77,0.00,,,0.15,WUHU216DAVISVP2,2013-04-10 21:34:00,
2013-04-10 14:39:00,51.4,43.8,30.16,SW,220,13.0,17.0,75,0.00,,,0.15,WUHU216DAVISVP2,2013-04-10 21:39:00,
2013-04-10 14:44:00,50.8,43.9,30.17,SW,222,10.0,20.0,77,0.00,,,0.15,WUHU216DAVISVP2,2013-04-10 21:44:00,
2013-04-10 14:49:00,51.2,45.6,30.17,WSW,239,2.0,20.0,81,0.00,,,0.15,WUHU216DAVISVP2,2013-04-10 21:49:00,
2013-04-10 14:54:00,51.9,44.6,30.17,SW,230,6.0,19.0,76,0.00,,,0.15,WUHU216DAVISVP2,2013-04-10 21:54:00,
2013-04-10 14:59:00,52.0,44.4,30.17,SW,234,6.0,19.0,75,0.00,,,0.15,WUHU216DAVISVP2,2013-04-10 21:59:00,
2013-04-10 15:04:00,51.8,44.5,30.17,WSW,257,6.0,12.0,76,0.00,,,0.15,WUHU216DAVISVP2,2013-04-10 22:04:00,
2013-04-10 15:09:00,51.9,44.6,30.18,WSW,246,2.0,12.0,76,0.00,,,0.15,WUHU216DAVISVP2,2013-04-10 22:09:00,
2013-04-10 15:14:00,52.0,43.6,30.18,West,263,4.0,7.0,73,0.00,,,0.15,WUHU216DAVISVP2,2013-04-10 22:14:00,
2013-04-10 15:19:00,51.7,44.4,30.18,SW,232,8.0,11.0,76,0.00,,,0.15,WUHU216DAVISVP2,2013-04-10 22:19:00,
2013-04-10 15:24:00,51.3,43.7,30.18,WSW,254,9.0,11.0,75,0.00,,,0.15,WUHU216DAVISVP2,2013-04-10 22:24:00,
2013-04-10 15:29:00,51.0,43.1,30.19,SW,227,10.0,17.0,74,0.00,,,0.15,WUHU216DAVISVP2,2013-04-10 22:29:00,
2013-04-10 15:34:00,50.5,42.9,30.19,SW,225,16.0,27.0,75,0.00,,,0.15,WUHU216DAVISVP2,2013-04-10 22:34:00,
2013-04-10 15:39:00,50.4,42.5,30.19,West,267,6.0,27.0,74,0.00,,,0.15,WUHU216DAVISVP2,2013-04-10 22:39:00,
2013-04-10 15:44:00,50.8,43.2,30.19,SW,215,12.0,16.0,75,0.00,,,0.15,WUHU216DAVISVP2,2013-04-10 22:44:00,
2013-04-10 15:49:00,51.2,42.8,30.19,WSW,256,10.0,21.0,73,0.00,,,0.15,WUHU216DAVISVP2,2013-04-10 22:49:00,
2013-04-10 15:54:00,51.6,42.9,30.19,West,274,4.0,21.0,72,0.00,,,0.15,WUHU216DAVISVP2,2013-04-10 22:54:00,
2013-04-10 15:59:00,52.2,43.1,30.19,West,259,9.0,17.0,71,0.00,,,0.15,WUHU216DAVISVP2,2013-04-10 22:59:00,
2013-04-10 16:04:00,52.6,43.6,30.19,SW,232,5.0,12.0,71,0.00,,,0.15,WUHU216DAVISVP2,2013-04-10 23:04:00,
2013-04-10 16:09:00,52.3,43.3,30.19,WSW,239,8.0,12.0,71,0.00,,,0.15,WUHU216DAVISVP2,2013-04-10 23:09:00,
2013-04-10 16:14:00,51.9,42.5,30.19,West,281,5.0,14.0,70,0.00,,,0.15,WUHU216DAVISVP2,2013-04-10 23:14:00,
2013-04-10 16:19:00,51.8,43.5,30.19,WSW,238,4.0,14.0,73,0.00,,,0.15,WUHU216DAVISVP2,2013-04-10 23:19:00,
2013-04-10 16:24:00,51.8,43.2,30.19,WSW,254,17.0,17.0,72,0.00,,,0.15,WUHU216DAVISVP2,2013-04-10 23:24:00,
2013-04-10 16:29:00,51.5,43.2,30.20,WSW,246,8.0,17.0,73,0.00,,,0.15,WUHU216DAVISVP2,2013-04-10 23:29:00,
2013-04-10 16:34:00,51.7,42.7,30.19,SW,229,5.0,16.0,71,0.00,,,0.15,WUHU216DAVISVP2,2013-04-10 23:34:00,
2013-04-10 16:39:00,51.7,42.6,30.19,West,275,7.0,18.0,71,0.00,,,0.15,WUHU216DAVISVP2,2013-04-10 23:39:00,
2013-04-10 16:44:00,51.5,42.0,30.19,SW,217,13.0,18.0,70,0.00,,,0.15,WUHU216DAVISVP2,2013-04-10 23:44:00,
2013-04-10 16:49:00,51.2,42.1,30.19,West,263,11.0,16.0,71,0.00,,,0.15,WUHU216DAVISVP2,2013-04-10 23:49:00,
2013-04-10 16:54:00,51.0,41.2,30.19,WSW,248,10.0,16.0,69,0.00,,,0.15,WUHU216DAVISVP2,2013-04-10 23:54:00,
2013-04-10 16:59:00,51.2,41.1,30.19,WSW,255,10.0,16.0,68,0.00,,,0.15,WUHU216DAVISVP2,2013-04-10 23:59:00,
2013-04-10 17:04:00,51.1,41.8,30.19,SW,220,16.0,16.0,70,0.00,,,0.15,WUHU216DAVISVP2,2013-04-11 00:04:00,
2013-04-10 17:09:00,51.3,41.2,30.19,WSW,248,4.0,16.0,68,0.00,,,0.15,WUHU216DAVISVP2,2013-04-11 00:09:00,
2013-04-10 17:14:00,51.3,41.6,30.19,SW,221,15.0,16.0,69,0.00,,,0.15,WUHU216DAVISVP2,2013-04-11 00:14:00,
2013-04-10 17:19:00,51.2,41.1,30.19,SW,221,12.0,17.0,68,0.00,,,0.15,WUHU216DAVISVP2,2013-04-11 00:19:00,
2013-04-10 17:24:00,50.7,41.0,30.19,West,261,9.0,17.0,69,0.00,,,0.15,WUHU216DAVISVP2,2013-04-11 00:24:00,
2013-04-10 17:29:00,50.5,40.8,30.19,WSW,240,5.0,16.0,69,0.00,,,0.15,WUHU216DAVISVP2,2013-04-11 00:29:00,
2013-04-10 17:34:00,50.3,41.0,30.19,WSW,252,6.0,15.0,70,0.00,,,0.15,WUHU216DAVISVP2,2013-04-11 00:34:00,
2013-04-10 17:39:00,50.1,40.8,30.19,WSW,240,5.0,18.0,70,0.00,,,0.15,WUHU216DAVISVP2,2013-04-11 00:39:00,
2013-04-10 17:44:00,50.2,41.3,30.19,SW,236,7.0,18.0,71,0.00,,,0.15,WUHU216DAVISVP2,2013-04-11 00:44:00,
2013-04-10 17:49:00,50.5,41.5,30.19,West,266,9.0,15.0,71,0.00,,,0.15,WUHU216DAVISVP2,2013-04-11 00:49:00,
2013-04-10 17:54:00,50.5,41.5,30.19,WSW,241,5.0,13.0,71,0.00,,,0.15,WUHU216DAVISVP2,2013-04-11 00:54:00,
2013-04-10 17:59:00,50.4,41.8,30.19,SSW,206,11.0,13.0,72,0.00,,,0.15,WUHU216DAVISVP2,2013-04-11 00:59:00,
2013-04-10 18:04:00,50.0,41.1,30.19,West,277,6.0,13.0,71,0.00,,,0.15,WUHU216DAVISVP2,2013-04-11 01:04:00,
2013-04-10 18:09:00,49.6,41.4,30.19,SW,223,5.0,15.0,73,0.00,,,0.15,WUHU216DAVISVP2,2013-04-11 01:09:00,
2013-04-10 18:14:00,49.4,41.9,30.20,SW,235,5.0,15.0,75,0.00,,,0.15,WUHU216DAVISVP2,2013-04-11 01:14:00,
2013-04-10 18:19:00,49.2,41.3,30.19,SW,223,3.0,12.0,74,0.00,,,0.15,WUHU216DAVISVP2,2013-04-11 01:19:00,
2013-04-10 18:24:00,49.0,41.2,30.19,SW,216,12.0,12.0,74,0.00,,,0.15,WUHU216DAVISVP2,2013-04-11 01:24:00,
2013-04-10 18:29:00,48.9,41.1,30.19,SSW,212,4.0,12.0,74,0.00,,,0.15,WUHU216DAVISVP2,2013-04-11 01:29:00,
2013-04-10 18:34:00,48.9,41.1,30.19,SW,220,12.0,12.0,74,0.00,,,0.15,WUHU216DAVISVP2,2013-04-11 01:34:00,
2013-04-10 18:39:00,48.7,40.8,30.20,WSW,239,8.0,12.0,74,0.00,,,0.15,WUHU216DAVISVP2,2013-04-11 01:39:00,
2013-04-10 18:44:00,48.5,40.6,30.20,SSW,210,11.0,13.0,74,0.00,,,0.15,WUHU216DAVISVP2,2013-04-11 01:44:00,
2013-04-10 18:49:00,48.4,40.6,30.20,SW,223,12.0,15.0,74,0.00,,,0.15,WUHU216DAVISVP2,2013-04-11 01:49:00,
2013-04-10 18:54:00,48.3,40.8,30.20,SW,225,7.0,15.0,75,0.00,,,0.15,WUHU216DAVISVP2,2013-04-11 01:54:00,
2013-04-10 18:59:00,48.3,40.8,30.20,WSW,255,5.0,9.0,75,0.00,,,0.15,WUHU216DAVISVP2,2013-04-11 01:59:00,
2013-04-10 19:04:00,48.1,40.6,30.20,WSW,243,8.0,13.0,75,0.00,,,0.15,WUHU216DAVISVP2,2013-04-11 02:04:00,
2013-04-10 19:09:00,47.9,40.4,30.20,WSW,254,3.0,13.0,75,0.00,,,0.15,WUHU216DAVISVP2,2013-04-11 02:09:00,
2013-04-10 19:14:00,47.8,40.3,30.20,SW,235,2.0,7.0,75,0.00,,,0.15,WUHU216DAVISVP2,2013-04-11 02:14:00,
2013-04-10 19:19:00,47.7,40.2,30.21,West,269,2.0,7.0,75,0.00,,,0.15,WUHU216DAVISVP2,2013-04-11 02:19:00,
2013-04-10 19:24:00,47.6,40.8,30.20,West,272,3.0,4.0,77,0.00,,,0.15,WUHU216DAVISVP2,2013-04-11 02:24:00,
2013-04-10 19:29:00,47.5,40.4,30.20,West,273,5.0,5.0,76,0.00,,,0.15,WUHU216DAVISVP2,2013-04-11 02:29:00,
2013-04-10 19:34:00,47.3,40.5,30.20,SW,222,4.0,5.0,77,0.00,,,0.15,WUHU216DAVISVP2,2013-04-11 02:34:00,
2013-04-10 19:39:00,47.2,40.4,30.20,West,260,1.0,6.0,77,0.00,,,0.15,WUHU216DAVISVP2,2013-04-11 02:39:00,
2013-04-10 19:44:00,47.1,40.6,30.20,SW,227,4.0,7.0,78,0.00,,,0.15,WUHU216DAVISVP2,2013-04-11 02:44:00,
2013-04-10 19:49:00,47.0,40.2,30.21,WSW,257,5.0,15.0,77,0.00,,,0.15,WUHU216DAVISVP2,2013-04-11 02:49:00,
2013-04-10 19:54:00,46.9,40.1,30.21,SW,236,8.0,15.0,77,0.00,,,0.15,WUHU216DAVISVP2,2013-04-11 02:54:00,
2013-04-10 19:59:00,46.9,40.1,30.21,WSW,244,2.0,11.0,77,0.00,,,0.15,WUHU216DAVISVP2,2013-04-11 02:59:00,
2013-04-10 20:04:00,46.8,39.7,30.21,SW,231,4.0,13.0,76,0.00,,,0.15,WUHU216DAVISVP2,2013-04-11 03:04:00,
2013-04-10 20:09:00,46.9,39.8,30.21,SW,220,6.0,13.0,76,0.00,,,0.15,WUHU216DAVISVP2,2013-04-11 03:09:00,
2013-04-10 20:14:00,46.6,39.8,30.21,SSW,209,7.0,9.0,77,0.00,,,0.15,WUHU216DAVISVP2,2013-04-11 03:14:00,
2013-04-10 20:19:00,46.5,39.4,30.21,West,269,1.0,11.0,76,0.00,,,0.15,WUHU216DAVISVP2,2013-04-11 03:19:00,
2013-04-10 20:24:00,46.5,39.7,30.21,SW,223,2.0,11.0,77,0.00,,,0.15,WUHU216DAVISVP2,2013-04-11 03:24:00,
2013-04-10 20:29:00,46.4,39.6,30.21,SW,236,4.0,9.0,77,0.00,,,0.15,WUHU216DAVISVP2,2013-04-11 03:29:00,
2013-04-10 20:34:00,46.3,39.5,30.21,SW,219,4.0,9.0,77,0.00,,,0.15,WUHU216DAVISVP2,2013-04-11 03:34:00,
2013-04-10 20:39:00,46.3,39.5,30.22,SW,219,5.0,5.0,77,0.00,,,0.15,WUHU216DAVISVP2,2013-04-11 03:39:00,
2013-04-10 20:44:00,46.3,39.1,30.22,SSW,208,5.0,7.0,76,0.00,,,0.15,WUHU216DAVISVP2,2013-04-11 03:44:00,
2013-04-10 20:49:00,46.3,39.2,30.22,SW,222,2.0,10.0,76,0.00,,,0.15,WUHU216DAVISVP2,2013-04-11 03:49:00,
2013-04-10 20:54:00,46.2,39.4,30.23,SW,222,6.0,10.0,77,0.00,,,0.15,WUHU216DAVISVP2,2013-04-11 03:54:00,
2013-04-10 20:59:00,46.2,39.1,30.23,SW,233,2.0,10.0,76,0.00,,,0.15,WUHU216DAVISVP2,2013-04-11 03:59:00,
2013-04-10 21:00:00,46.2,39.1,30.23,SW,233,2.0,10.0,76,0.00,,,0.15,WUHU216DAVISVP2,2013-04-11 04:00:00,
2013-04-10 21:05:00,46.2,39.1,30.23,SW,228,11.0,13.0,76,0.00,,,0.15,WUHU216DAVISVP2,2013-04-11 04:05:00,
2013-04-10 21:10:00,46.1,39.0,30.23,SW,223,4.0,13.0,76,0.00,,,0.15,WUHU216DAVISVP2,2013-04-11 04:10:00,
2013-04-10 21:15:00,46.0,39.5,30.23,SW,225,3.0,6.0,78,0.00,,,0.15,WUHU216DAVISVP2,2013-04-11 04:15:00,
2013-04-10 21:22:00,46.3,39.5,30.24,WSW,243,5.0,7.0,77,0.00,,,0.15,WUHU216DAVISVP2,2013-04-11 04:22:00,
2013-04-10 21:27:00,45.8,39.4,30.24,SSW,213,8.0,8.0,78,0.00,,,0.15,WUHU216DAVISVP2,2013-04-11 04:27:00,
2013-04-10 21:33:00,45.7,39.6,30.24,SW,236,5.0,8.0,79,0.00,,,0.15,WUHU216DAVISVP2,2013-04-11 04:33:00,
2013-04-10 21:38:00,45.6,39.5,30.25,SW,221,8.0,8.0,79,0.00,,,0.15,WUHU216DAVISVP2,2013-04-11 04:38:00,
2013-04-10 21:43:00,45.6,39.5,30.25,WSW,238,3.0,13.0,79,0.00,,,0.15,WUHU216DAVISVP2,2013-04-11 04:43:00,
2013-04-10 21:48:00,45.5,39.4,30.25,SW,235,1.0,13.0,79,0.00,,,0.15,WUHU216DAVISVP2,2013-04-11 04:48:00,
2013-04-10 21:53:00,45.4,39.3,30.24,WSW,241,2.0,9.0,79,0.00,,,0.15,WUHU216DAVISVP2,2013-04-11 04:53:00,
2013-04-10 21:58:00,45.4,39.3,30.24,SW,233,2.0,9.0,79,0.00,,,0.15,WUHU216DAVISVP2,2013-04-11 04:58:00,
2013-04-10 22:03:00,45.3,39.5,30.25,SW,218,7.0,7.0,80,0.00,,,0.15,WUHU216DAVISVP2,2013-04-11 05:03:00,
2013-04-10 22:08:00,45.3,39.2,30.25,SW,232,3.0,9.0,79,0.00,,,0.15,WUHU216DAVISVP2,2013-04-11 05:08:00,
2013-04-10 22:13:00,45.3,39.2,30.25,SW,227,3.0,9.0,79,0.00,,,0.15,WUHU216DAVISVP2,2013-04-11 05:13:00,
2013-04-10 22:18:00,45.2,39.1,30.24,SW,225,5.0,9.0,79,0.00,,,0.15,WUHU216DAVISVP2,2013-04-11 05:18:00,
2013-04-10 22:23:00,45.2,39.4,30.25,SW,232,4.0,9.0,80,0.00,,,0.15,WUHU216DAVISVP2,2013-04-11 05:23:00,
2013-04-10 22:28:00,45.2,39.4,30.25,SW,225,2.0,4.0,80,0.00,,,0.15,WUHU216DAVISVP2,2013-04-11 05:28:00,
2013-04-10 22:33:00,45.1,39.3,30.25,SW,229,3.0,5.0,80,0.00,,,0.15,WUHU216DAVISVP2,2013-04-11 05:33:00,
2013-04-10 22:38:00,45.1,39.6,30.26,SW,221,4.0,5.0,81,0.00,,,0.15,WUHU216DAVISVP2,2013-04-11 05:38:00,
2013-04-10 22:43:00,45.1,39.6,30.26,WSW,238,0.0,4.0,81,0.00,,,0.15,WUHU216DAVISVP2,2013-04-11 05:43:00,
2013-04-10 22:48:00,45.0,39.2,30.26,SW,223,3.0,7.0,80,0.00,,,0.15,WUHU216DAVISVP2,2013-04-11 05:48:00,
2013-04-10 22:53:00,44.9,39.1,30.25,SSW,212,3.0,7.0,80,0.00,,,0.15,WUHU216DAVISVP2,2013-04-11 05:53:00,
2013-04-10 22:58:00,44.9,39.1,30.25,SSW,211,3.0,7.0,80,0.00,,,0.15,WUHU216DAVISVP2,2013-04-11 05:58:00,
2013-04-10 23:03:00,44.9,39.1,30.26,SW,223,4.0,7.0,80,0.00,,,0.15,WUHU216DAVISVP2,2013-04-11 06:03:00,
2013-04-10 23:07:00,44.9,39.1,30.26,SSW,213,0.0,4.0,80,0.00,,,0.15,WUHU216DAVISVP2,2013-04-11 06:07:00,
2013-04-10 23:12:00,44.9,39.4,30.25,SW,221,1.0,4.0,81,0.00,,,0.15,WUHU216DAVISVP2,2013-04-11 06:12:00,
2013-04-10 23:17:00,44.8,39.3,30.26,SW,228,1.0,4.0,81,0.00,,,0.15,WUHU216DAVISVP2,2013-04-11 06:17:00,
2013-04-10 23:23:00,44.8,39.3,30.26,SW,223,1.0,4.0,81,0.00,,,0.15,WUHU216DAVISVP2,2013-04-11 06:23:00,
2013-04-10 23:28:00,44.8,39.3,30.26,SW,223,3.0,3.0,81,0.00,,,0.15,WUHU216DAVISVP2,2013-04-11 06:28:00,
2013-04-10 23:33:00,44.8,39.3,30.26,SW,234,0.0,3.0,81,0.00,,,0.15,WUHU216DAVISVP2,2013-04-11 06:33:00,
2013-04-10 23:37:00,44.8,39.3,30.27,SSW,210,5.0,5.0,81,0.00,,,0.15,WUHU216DAVISVP2,2013-04-11 06:37:00,
2013-04-10 23:42:00,44.8,39.3,30.27,SW,215,1.0,5.0,81,0.00,,,0.15,WUHU216DAVISVP2,2013-04-11 06:42:00,
2013-04-10 23:48:00,44.8,39.3,30.27,SW,221,0.0,5.0,81,0.00,,,0.15,WUHU216DAVISVP2,2013-04-11 06:48:00,
2013-04-10 23:53:00,44.7,39.6,30.27,SW,223,1.0,6.0,82,0.00,,,0.15,WUHU216DAVISVP2,2013-04-11 06:53:00,
2013-04-10 23:58:00,44.7,39.2,30.27,SW,233,0.0,6.0,81,0.00,,,0.15,WUHU216DAVISVP2,2013-04-11 06:58:00,